📊 Raw Sensor Data

Showing records 52826 to 52850 of 85,314 total

ID Distance (ft) Battery V Battery A Int Temp (°F) Int Humid (%) Ext Temp (°F) Solar V RSSI SNR Time Stamp
32501 12.6 3.59 -5 41 38 43 0.00 -88 8 02/16/2025 01:00 AM
32500 12.6 3.60 -5 41 38 43 0.00 -86 8 02/16/2025 12:45 AM
32499 12.5 3.78 -5 41 38 43 0.10 -86 8 02/16/2025 12:30 AM
32498 12.6 3.64 -5 42 38 44 0.10 -85 8 02/16/2025 12:15 AM
32497 12.5 3.79 -5 42 38 44 0.00 -86 9 02/16/2025 12:00 AM
32496 12.5 3.62 -5 42 38 44 0.00 -85 8 02/15/2025 11:45 PM
32495 12.5 3.61 -5 42 38 44 0.10 -84 8 02/15/2025 11:30 PM
32494 12.6 3.79 -5 42 38 44 0.00 -84 8 02/15/2025 11:15 PM
32493 12.6 3.61 -5 43 38 44 0.10 -82 8 02/15/2025 11:00 PM
32492 12.6 3.60 -5 43 38 44 0.00 -84 7 02/15/2025 10:45 PM
32491 12.6 3.78 -5 44 38 45 0.00 -83 8 02/15/2025 10:30 PM
32490 12.6 3.59 -5 44 38 45 0.10 -82 8 02/15/2025 10:15 PM
32489 12.6 3.54 -5 44 38 46 0.00 -81 8 02/15/2025 10:00 PM
32488 12.6 3.57 -5 44 38 47 0.00 -82 7 02/15/2025 09:45 PM
32487 12.6 3.59 -5 43 38 45 0.00 -85 8 02/15/2025 09:30 PM
32486 12.6 3.57 -5 44 38 45 0.00 -84 8 02/15/2025 09:15 PM
32485 12.6 3.63 -34 45 38 48 0.00 -82 9 02/15/2025 09:00 PM
32484 12.6 3.60 -5 45 38 47 0.10 -82 9 02/15/2025 08:45 PM
32483 12.6 3.64 -5 46 38 47 0.00 -82 8 02/15/2025 08:30 PM
32482 12.6 3.80 -5 46 38 47 0.10 -82 8 02/15/2025 08:15 PM
32481 12.6 3.63 -5 46 38 48 0.10 -82 8 02/15/2025 08:00 PM
32480 12.6 3.80 -5 46 38 50 0.00 -82 8 02/15/2025 07:45 PM
32479 12.6 3.66 -5 47 39 49 0.00 -81 8 02/15/2025 07:30 PM
32478 12.6 3.60 -5 47 39 49 0.00 -81 9 02/15/2025 07:15 PM
32477 12.6 3.61 -5 47 40 50 0.10 -81 8 02/15/2025 07:00 PM